Showing default

FLOCK 4G 32, 62643

Orbit data source: Space-Track

FLOCK 4G 32, 62643 is a payload satellite owned by Planet (US) in SSO that was launched on Tue, 14 Jan 2025 UTC via an FALCON 9 launch vehicle from the Air Force Western Test Range (AFWTR). Payload-class satellites include a variety of spacecraft equipped with specific instruments for various scientific and technological missions. These include communications satellites like Starlink; space stations such as the ISS; scientific satellites like the Hubble; Earth observation satellites from companies like Planet Labs, Umbra, and HawkEye 360; GPS; miniature CubeSats for education and research; and military/defense satellites.

Loading next visibility...
Identifier
62643, 2025-009AL
Orbit
SSO
Last TLE update
2 days ago
Origin
Manufacturer
Planet
Mission
Operational Commercial Imaging
Bus & Motor
CUBESAT 3U, Unknown motor
Mass
5.7 kg wet, 5.7 kg dry
Launch date (UTC)
2025-01-14 (5 months ago)
Launch vehicle
FALCON 9
Launch site
Air Force Western Test Range (AFWTR)
Object type
Payload
Rocket body
Debris
Shape & HBR
Box + 2 Pan, 0.3 m
Radar Cross Section
0.035 m², Medium (>0.1 m² and < 1m²)

Expand to show TLE details & history

TLE from 2 days ago
0 FLOCK 4G 32
1 62643U 25009AL  25173.63474811  .00004776  00000-0  21934-3 0  9995
2 62643  97.4254 253.7607 0003657 123.5588 236.5997 15.20862324 24108
Epoch: 2025-06-22T15:14Z
TLE epoch observation values (Epoch: 2025-06-22T15:14:02.236Z)
Latitude
-0.00005°
Longitude
114.19484°
Altitude
507.715 km
Speed
7.609 km/s
True Right ascension
16h 55m 02s
True Declination
0° 00' 00"
Sunlit
Object was in full shadow at epoch
Visualization orbit readout
Latitude
11.39353°
Longitude
114.71022°
Altitude
506.153 km
Speed
7.612 km/s
Apparent Right ascension
16h 18m 50s
Apparent Declination
-13° 23' 18"
Sunlit
Object is in full shadow
Visualization observer readout
Local Sidereal Time
03:25:52
Azimuth
332.614° NNW
Elevation
-61.032°
Doppler factor
1
Orbital elements
Apogee altitude
502.719 km
Perigee altitude
497.688 km
Semi-major axis
6,878.341 km
Eccentricity
0.00037
Inclination
97.4254°
RAAN
253.7607°
Arg. of periapsis
123.5588°
True anomaly
Unknown
Mean anomaly
236.5997°
Eccentric anomaly
Unknown
Mean motion
3.80468 °/min
Orbital period
94.62 mins
BSTAR
0.00021934
Loading maneuver chart data...
Loading SW <> Apogee altitude chart data...
Loading historical data...
Loading historical data...
Loading historical data...
Loading historical data...
Loading historical data...
Loading historical data...
Loading historical data...

FLOCK 4G 32 Visibility forecast

Observer location: undefined°, undefined°

Span
Click to sort rows by Start time (UTC) header in descending order
Start Az.
Max El. time (UTC)
Max El. Az.
Max El.
End time (UTC)
End Az.
7 mins2025-06-24 18:19:04.695Z7.849° NNE2025-06-24 18:22:04.695Z334.703° NNW42.358°2025-06-24 18:26:04.695Z198.74° SSW
5 mins2025-06-25 04:58:04.695Z128.295° SE2025-06-25 05:00:04.695Z66.567° ENE31.945°2025-06-25 05:03:04.695Z5.688° NNE
|